This demonstration page uses our WeatherBlox Daily Observations layout. Learn more.

Left ArrowRight Arrow

Hourly Observations for August 11, 2022

Temp ( °F °C ) Dew Point ( °F °C ) Humidity (%) Winds ( mph kmh ) Pressure ( in mb ) Visibility ( mi km ) Precip ( " mm )
12:53 am 00:53 Clear 66 18.9 64 17.8 93 93 Calm 30.10 1019 7 11 0.00 0.00
1:53 am 01:53 Clear 65 18.3 63 17.2 93 93 Calm 30.09 1019 8 13 0.00 0.00
2:53 am 02:53 Clear 64 17.8 62 16.7 93 93 Calm 30.10 1019 7 11 0.00 0.00
3:53 am 03:53 Clear 63 17.2 61 16.1 93 93 Calm 30.10 1019 7 11 0.00 0.00
4:53 am 04:53 Clear with Mist and Fog 61 16.1 59 15 93 93 Calm 30.10 1019 1 2 0.00 0.00
5:01 am 05:01 Mostly Clear with Fog 61 16.1 59 15 93 93 Calm 30.10 1019 1 1 0.00 0.00
5:09 am 05:09 Mostly Clear with Mist and Fog 61 16.1 60 15.6 97 97 WNW 3 6 30.10 1019 3 5 0.00 0.00
5:53 am 05:53 Clear with Mist and Fog 61 16.1 60 15.6 97 97 Calm 30.10 1019 6 10 0.00 0.00
6:53 am 06:53 Sunny with Mist and Fog 62 16.7 60 15.6 93 93 Calm 30.10 1019 6 10 0.00 0.00
7:53 am 07:53 Sunny 65 18.3 63 17.2 93 93 Calm 30.11 1020 8 13 0.00 0.00
8:53 am 08:53 Sunny 70 21.1 64 17.8 81 81 Calm 30.12 1020 10 16 0.00 0.00
9:53 am 09:53 Sunny 73 22.8 63 17.2 71 71 NNW 3 6 30.12 1020 10 16 0.00 0.00
10:53 am 10:53 Sunny 76 24.4 63 17.2 64 64 VRB 3 6 30.11 1020 10 16 0.00 0.00
11:53 am 11:53 Sunny 79 26.1 63 17.2 58 58 VRB 3 6 30.11 1020 10 16 0.00 0.00
12:53 pm 12:53 Sunny 81 27.2 63 17.2 54 54 NNE 7 11 30.10 1019 10 16 0.00 0.00
1:53 pm 13:53 Mostly Sunny 82 27.8 65 18.3 56 56 VRB 3 6 30.09 1019 10 16 0.00 0.00
2:53 pm 14:53 Sunny 83 28.3 64 17.8 53 53 N 7 11 30.08 1019 10 16 0.00 0.00
3:53 pm 15:53 Partly Cloudy 82 27.8 64 17.8 55 55 N 7 11 30.06 1018 10 16 0.00 0.00
4:53 pm 16:53 Sunny 83 28.3 65 18.3 55 55 N 6 9 30.05 1018 10 16 0.00 0.00
5:53 pm 17:53 Sunny 83 28.3 65 18.3 55 55 VRB 6 9 30.04 1017 10 16 0.00 0.00
6:53 pm 18:53 Mostly Cloudy 79 26.1 64 17.8 60 60 N 3 6 30.04 1017 10 16 0.00 0.00
7:53 pm 19:53 Cloudy 77 25 66 18.9 69 69 N 6 9 30.06 1018 10 16 0.00 0.00
8:53 pm 20:53 Mostly Cloudy 74 23.3 65 18.3 74 74 N 7 11 30.06 1018 10 16 0.00 0.00
9:53 pm 21:53 Mostly Cloudy 73 22.8 63 17.2 71 71 NNE 8 13 30.09 1019 10 16 0.00 0.00
10:53 pm 22:53 Mostly Cloudy 70 21.1 62 16.7 76 76 NNE 3 6 30.10 1019 10 16 0.00 0.00
11:53 pm 23:53 Clear 67 19.4 61 16.1 81 81 N 3 6 30.11 1020 10 16 0.00 0.00

Powered by AerisWeather